Visibility
15.0 15.0 15.0 15.0 15.0 15.0 15.0 15.0 15.0 15.0 15.0 15.0 10.3 11.1 5.6 3.3 5.4 5.6 6.1 15.0 15.0 15.0
15.0 15.0 15.0 15.0 15.0 15.0 15.0 15.0 15.0 15.0 15.0 15.0 15.0 9.1 4.6 2.9 5.8 4.0 5.3 12.3 15.0 4.4
15.0 15.0 15.0 15.0 15.0 15.0 15.0 15.0 15.0 15.0 15.0 15.0 15.0 9.2 3.8 5.4 4.3 5.7 6.1 5.3 9.5 6.7
15.0 15.0 15.0 15.0 15.0 15.0 15.0 15.0 15.0 15.0 15.0 15.0 15.0 7.7 4.7 5.2 4.1 4.1 4.9 4.3 14.1 12.6
15.0 15.0 15.0 15.0 15.0 15.0 15.0 15.0 15.0 15.0 15.0 15.0 14.6 5.3 5.7 5.2 6.3 3.7 4.3 3.5 4.8 8.5
15.0 15.0 15.0 15.0 15.0 15.0 15.0 15.0 15.0 15.0 15.0 15.0 14.9 9.1 7.4 4.0 4.1 3.8 3.4 4.0 4.1 8.0
15.0 15.0 15.0 15.0 15.0 15.0 15.0 15.0 15.0 15.0 15.0 15.0 13.8 10.1 5.9 6.2 4.7 5.9 15.0 15.0 15.0 15.0
15.0 15.0 15.0 15.0 15.0 15.0 15.0 15.0 15.0 15.0 15.0 15.0 15.0 15.0 15.0 14.7 15.0 15.0 15.0 15.0 15.0 15.0
15.0 15.0 15.0 15.0 15.0 15.0 15.0 15.0 15.0 15.0 15.0 15.0 15.0 0.5 0.1 9.1 15.0 15.0 13.5 0.2 0.1 0.2
15.0 15.0 15.0 15.0 15.0 15.0 14.5 14.9 14.9 15.0 15.0 13.5 15.0 0.1 0.1 0.1 15.0 15.0 15.0 1.9 0.1 0.1
6.7 15.0 15.0 15.0 15.0 15.0 15.0 13.6 15.0 13.9 15.0 15.0 14.1 0.0 0.0 0.0 15.0 15.0 0.5 0.2 0.4 0.1
8.3 15.0 15.0 14.1 15.0 15.0 15.0 14.7 15.0 15.0 15.0 15.0 14.2 0.0 0.0 0.0 0.1 0.0 0.0 0.1 0.2 0.1
5.1 15.0 14.7 11.8 10.1 15.0 15.0 15.0 15.0 2.2 0.8 0.1 0.1 0.0 0.1 0.1 0.1 0.1 0.1 0.1 0.1 1.2
3.2 7.9 7.5 11.0 6.8 0.5 0.7 0.1 0.1 0.0 0.1 0.1 0.2 0.3 5.8 7.2 0.1 0.0 0.1 0.1 0.1 3.1